contact:dominique.lefevre@mio.osupytheas.fr, maurice.libes@osupytheas.fr, didier.mallarino@osupytheas.fr
Project:EMSO http://www.emso-fr.org/EMSO-France
Depth: 2436.0 m
Title:EMSO Ligure Ouest : Data MII capteur MICROCAT
DateTime_Computer,Latitude,Longitude,Temperature,Conductivity,Pressure,DateTime_Instrument
DateTime_Computer,Latitude,Longitude,degC,S m-1,dbar,DateTime_Instrument
2022-07-26T00:01:14Z,42.805,6.029,13.3004,4.60043,2470.577,2022-7-26T02:03:01Z
2022-07-26T00:04:17Z,42.805,6.029,13.3005,4.60043,2470.577,2022-7-26T02:06:05Z
2022-07-26T00:07:20Z,42.805,6.029,13.3006,4.60043,2470.577,2022-7-26T02:09:08Z
2022-07-26T00:10:23Z,42.805,6.029,13.3004,4.60044,2470.577,2022-7-26T02:12:11Z
2022-07-26T00:13:27Z,42.805,6.029,13.3003,4.60044,2470.553,2022-7-26T02:15:14Z
2022-07-26T00:16:30Z,42.805,6.029,13.3005,4.60044,2470.553,2022-7-26T02:18:17Z
2022-07-26T00:19:33Z,42.805,6.029,13.3008,4.60043,2470.567,2022-7-26T02:21:20Z
2022-07-26T00:22:36Z,42.805,6.029,13.3007,4.60043,2470.577,2022-7-26T02:24:23Z
2022-07-26T00:25:39Z,42.805,6.029,13.3006,4.60042,2470.577,2022-7-26T02:27:26Z
2022-07-26T00:28:42Z,42.805,6.029,13.3006,4.60043,2470.6,2022-7-26T02:30:30Z
2022-07-26T00:31:45Z,42.805,6.029,13.3009,4.60043,2470.553,2022-7-26T02:33:33Z
2022-07-26T00:34:48Z,42.805,6.029,13.3011,4.60044,2470.577,2022-7-26T02:36:36Z
2022-07-26T00:37:52Z,42.805,6.029,13.3006,4.60042,2470.53,2022-7-26T02:39:39Z
2022-07-26T00:40:55Z,42.805,6.029,13.3006,4.60042,2470.591,2022-7-26T02:42:42Z
2022-07-26T00:43:58Z,42.805,6.029,13.3007,4.60044,2470.553,2022-7-26T02:45:45Z
2022-07-26T00:47:01Z,42.805,6.029,13.3006,4.60044,2470.577,2022-7-26T02:48:48Z
2022-07-26T00:50:04Z,42.805,6.029,13.3005,4.60043,2470.553,2022-7-26T02:51:51Z
2022-07-26T00:53:07Z,42.805,6.029,13.3004,4.60043,2470.553,2022-7-26T02:54:55Z
2022-07-26T00:56:10Z,42.805,6.029,13.3006,4.60044,2470.553,2022-7-26T02:57:58Z
2022-07-26T00:59:13Z,42.805,6.029,13.3006,4.60043,2470.577,2022-7-26T03:01:01Z
2022-07-26T01:02:17Z,42.805,6.029,13.3006,4.60042,2470.6,2022-7-26T03:04:04Z
2022-07-26T01:05:20Z,42.805,6.029,13.3005,4.60044,2470.553,2022-7-26T03:07:07Z
2022-07-26T01:08:23Z,42.805,6.029,13.3009,4.60044,2470.577,2022-7-26T03:10:10Z
2022-07-26T01:11:26Z,42.805,6.029,13.3007,4.60043,2470.544,2022-7-26T03:13:13Z
2022-07-26T01:14:29Z,42.805,6.029,13.3007,4.60043,2470.567,2022-7-26T03:16:16Z
2022-07-26T01:17:32Z,42.805,6.029,13.3004,4.60043,2470.53,2022-7-26T03:19:20Z
2022-07-26T01:20:35Z,42.805,6.029,13.3004,4.60043,2470.53,2022-7-26T03:22:23Z
2022-07-26T01:23:38Z,42.805,6.029,13.3007,4.60042,2470.591,2022-7-26T03:25:26Z
2022-07-26T01:26:42Z,42.805,6.029,13.3009,4.60045,2470.577,2022-7-26T03:28:29Z
2022-07-26T01:29:45Z,42.805,6.029,13.3006,4.60044,2470.577,2022-7-26T03:31:32Z
2022-07-26T01:32:48Z,42.805,6.029,13.3007,4.60044,2470.553,2022-7-26T03:34:35Z
2022-07-26T01:35:51Z,42.805,6.029,13.3003,4.60044,2470.563,2022-7-26T03:37:38Z
2022-07-26T01:38:54Z,42.805,6.029,13.3008,4.60046,2470.553,2022-7-26T03:40:41Z
2022-07-26T01:41:57Z,42.805,6.029,13.3009,4.60044,2470.567,2022-7-26T03:43:44Z
2022-07-26T01:45:00Z,42.805,6.029,13.3006,4.60043,2470.567,2022-7-26T03:46:48Z
2022-07-26T01:48:03Z,42.805,6.029,13.3006,4.60042,2470.553,2022-7-26T03:49:51Z
2022-07-26T01:51:06Z,42.805,6.029,13.3006,4.60043,2470.553,2022-7-26T03:52:54Z
2022-07-26T01:54:10Z,42.805,6.029,13.3007,4.60042,2470.553,2022-7-26T03:55:57Z
2022-07-26T01:57:13Z,42.805,6.029,13.3006,4.60044,2470.567,2022-7-26T03:59:00Z
2022-07-26T02:00:16Z,42.805,6.029,13.3008,4.60044,2470.591,2022-7-26T04:02:03Z
2022-07-26T02:03:19Z,42.805,6.029,13.3007,4.60043,2470.577,2022-7-26T04:05:06Z
2022-07-26T02:06:22Z,42.805,6.029,13.3006,4.60044,2470.591,2022-7-26T04:08:09Z
2022-07-26T02:09:25Z,42.805,6.029,13.3009,4.60045,2470.6,2022-7-26T04:11:13Z
2022-07-26T02:12:28Z,42.805,6.029,13.3005,4.60044,2470.577,2022-7-26T04:14:16Z
2022-07-26T02:15:31Z,42.805,6.029,13.3006,4.60043,2470.563,2022-7-26T04:17:19Z
2022-07-26T02:18:35Z,42.805,6.029,13.3009,4.60043,2470.553,2022-7-26T04:20:22Z
2022-07-26T02:21:38Z,42.805,6.029,13.3006,4.60043,2470.591,2022-7-26T04:23:25Z
2022-07-26T02:24:41Z,42.805,6.029,13.3006,4.60044,2470.6,2022-7-26T04:26:28Z
2022-07-26T02:27:44Z,42.805,6.029,13.3011,4.60043,2470.6,2022-7-26T04:29:31Z
2022-07-26T02:30:47Z,42.805,6.029,13.3009,4.60044,2470.577,2022-7-26T04:32:34Z
2022-07-26T02:33:50Z,42.805,6.029,13.3006,4.60044,2470.553,2022-7-26T04:35:38Z
2022-07-26T02:36:53Z,42.805,6.029,13.3009,4.60044,2470.577,2022-7-26T04:38:41Z
2022-07-26T02:39:56Z,42.805,6.029,13.3009,4.60044,2470.624,2022-7-26T04:41:44Z
2022-07-26T02:43:00Z,42.805,6.029,13.3009,4.60044,2470.577,2022-7-26T04:44:47Z
2022-07-26T02:46:03Z,42.805,6.029,13.3009,4.60049,2470.637,2022-7-26T04:47:50Z
2022-07-26T02:49:06Z,42.805,6.029,13.3006,4.60044,2470.614,2022-7-26T04:50:53Z
2022-07-26T02:52:09Z,42.805,6.029,13.3005,4.60044,2470.577,2022-7-26T04:53:56Z
2022-07-26T02:55:12Z,42.805,6.029,13.3007,4.60044,2470.6,2022-7-26T04:56:59Z
2022-07-26T02:58:15Z,42.805,6.029,13.3007,4.60043,2470.6,2022-7-26T05:00:03Z
2022-07-26T03:01:18Z,42.805,6.029,13.3006,4.60042,2470.577,2022-7-26T05:03:06Z
2022-07-26T03:04:21Z,42.805,6.029,13.3008,4.60043,2470.6,2022-7-26T05:06:09Z
2022-07-26T03:07:25Z,42.805,6.029,13.3006,4.60042,2470.6,2022-7-26T05:09:12Z
2022-07-26T03:10:28Z,42.805,6.029,13.3006,4.60042,2470.614,2022-7-26T05:12:15Z
2022-07-26T03:13:31Z,42.805,6.029,13.3005,4.60043,2470.6,2022-7-26T05:15:18Z
2022-07-26T03:16:34Z,42.805,6.029,13.3006,4.60043,2470.6,2022-7-26T05:18:21Z
2022-07-26T03:19:37Z,42.805,6.029,13.3006,4.60046,2470.6,2022-7-26T05:21:24Z
2022-07-26T03:22:40Z,42.805,6.029,13.3007,4.60044,2470.637,2022-7-26T05:24:28Z
2022-07-26T03:25:43Z,42.805,6.029,13.3005,4.60043,2470.591,2022-7-26T05:27:31Z
2022-07-26T03:28:46Z,42.805,6.029,13.3006,4.60042,2470.614,2022-7-26T05:30:34Z
2022-07-26T03:31:50Z,42.805,6.029,13.3007,4.60042,2470.577,2022-7-26T05:33:37Z
2022-07-26T03:34:53Z,42.805,6.029,13.3006,4.60043,2470.614,2022-7-26T05:36:40Z
2022-07-26T03:37:56Z,42.805,6.029,13.3009,4.60043,2470.6,2022-7-26T05:39:43Z
2022-07-26T03:40:59Z,42.805,6.029,13.3003,4.60043,2470.6,2022-7-26T05:42:46Z
2022-07-26T03:44:02Z,42.805,6.029,13.3005,4.60044,2470.624,2022-7-26T05:45:49Z
2022-07-26T03:47:05Z,42.805,6.029,13.3009,4.60043,2470.614,2022-7-26T05:48:52Z
2022-07-26T03:50:08Z,42.805,6.029,13.3006,4.60044,2470.637,2022-7-26T05:51:56Z
2022-07-26T03:53:11Z,42.805,6.029,13.3003,4.60044,2470.624,2022-7-26T05:54:59Z
2022-07-26T03:56:15Z,42.805,6.029,13.3006,4.60045,2470.61,2022-7-26T05:58:02Z
2022-07-26T03:59:18Z,42.805,6.029,13.3009,4.60044,2470.624,2022-7-26T06:01:05Z
2022-07-26T04:02:21Z,42.805,6.029,13.3005,4.60042,2470.586,2022-7-26T06:04:08Z
2022-07-26T04:05:24Z,42.805,6.029,13.3008,4.60043,2470.661,2022-7-26T06:07:11Z
2022-07-26T04:08:27Z,42.805,6.029,13.3005,4.60043,2470.614,2022-7-26T06:10:14Z
2022-07-26T04:11:30Z,42.805,6.029,13.3007,4.60044,2470.577,2022-7-26T06:13:17Z
2022-07-26T04:14:33Z,42.805,6.029,13.3009,4.60044,2470.637,2022-7-26T06:16:21Z
2022-07-26T04:17:36Z,42.805,6.029,13.3006,4.60046,2470.624,2022-7-26T06:19:24Z
2022-07-26T04:20:39Z,42.805,6.029,13.3004,4.60044,2470.637,2022-7-26T06:22:27Z
2022-07-26T04:23:43Z,42.805,6.029,13.3006,4.60044,2470.6,2022-7-26T06:25:30Z
2022-07-26T04:26:46Z,42.805,6.029,13.3006,4.60044,2470.646,2022-7-26T06:28:33Z
2022-07-26T04:29:49Z,42.805,6.029,13.3007,4.60045,2470.624,2022-7-26T06:31:36Z
2022-07-26T04:32:52Z,42.805,6.029,13.3008,4.60046,2470.6,2022-7-26T06:34:39Z
2022-07-26T04:35:55Z,42.805,6.029,13.3006,4.60044,2470.6,2022-7-26T06:37:42Z
2022-07-26T04:38:58Z,42.805,6.029,13.3004,4.60042,2470.624,2022-7-26T06:40:46Z
2022-07-26T04:42:01Z,42.805,6.029,13.3006,4.60045,2470.6,2022-7-26T06:43:49Z
2022-07-26T04:45:04Z,42.805,6.029,13.3006,4.60044,2470.67,2022-7-26T06:46:52Z
2022-07-26T04:48:08Z,42.805,6.029,13.3009,4.60044,2470.624,2022-7-26T06:49:55Z
2022-07-26T04:51:11Z,42.805,6.029,13.3009,4.60043,2470.646,2022-7-26T06:52:58Z
2022-07-26T04:54:14Z,42.805,6.029,13.3002,4.60045,2470.637,2022-7-26T06:56:01Z
2022-07-26T04:57:17Z,42.805,6.029,13.3006,4.60047,2470.624,2022-7-26T06:59:04Z
2022-07-26T05:00:20Z,42.805,6.029,13.3006,4.60043,2470.646,2022-7-26T07:02:07Z
2022-07-26T05:03:23Z,42.805,6.029,13.3004,4.60046,2470.646,2022-7-26T07:05:11Z
2022-07-26T05:06:26Z,42.805,6.029,13.3005,4.60044,2470.624,2022-7-26T07:08:14Z
2022-07-26T05:09:29Z,42.805,6.029,13.3005,4.60042,2470.624,2022-7-26T07:11:17Z
2022-07-26T05:12:33Z,42.805,6.029,13.3010,4.60044,2470.67,2022-7-26T07:14:20Z
2022-07-26T05:15:36Z,42.805,6.029,13.3000,4.60044,2470.624,2022-7-26T07:17:23Z
2022-07-26T05:18:39Z,42.805,6.029,13.3006,4.60044,2470.661,2022-7-26T07:20:26Z
2022-07-26T05:21:42Z,42.805,6.029,13.3006,4.60044,2470.637,2022-7-26T07:23:29Z
2022-07-26T05:24:45Z,42.805,6.029,13.3004,4.60044,2470.661,2022-7-26T07:26:32Z
2022-07-26T05:27:48Z,42.805,6.029,13.3007,4.60046,2470.614,2022-7-26T07:29:35Z
2022-07-26T05:30:51Z,42.805,6.029,13.3009,4.60046,2470.6,2022-7-26T07:32:39Z
2022-07-26T05:33:54Z,42.805,6.029,13.3010,4.60045,2470.624,2022-7-26T07:35:42Z
2022-07-26T05:36:58Z,42.805,6.029,13.3009,4.60045,2470.624,2022-7-26T07:38:45Z
2022-07-26T05:40:01Z,42.805,6.029,13.3007,4.60042,2470.661,2022-7-26T07:41:48Z
2022-07-26T05:43:04Z,42.805,6.029,13.3007,4.60043,2470.646,2022-7-26T07:44:51Z
2022-07-26T05:46:07Z,42.805,6.029,13.3011,4.60044,2470.624,2022-7-26T07:47:54Z
2022-07-26T05:49:10Z,42.805,6.029,13.3009,4.60046,2470.614,2022-7-26T07:50:57Z
2022-07-26T05:52:13Z,42.805,6.029,13.3006,4.60044,2470.624,2022-7-26T07:54:00Z
2022-07-26T05:55:16Z,42.805,6.029,13.3006,4.60051,2470.624,2022-7-26T07:57:04Z
2022-07-26T05:58:19Z,42.805,6.029,13.3006,4.60047,2470.661,2022-7-26T08:00:07Z
2022-07-26T06:01:22Z,42.805,6.029,13.3006,4.60046,2470.586,2022-7-26T08:03:10Z
2022-07-26T06:04:26Z,42.805,6.029,13.3004,4.60046,2470.646,2022-7-26T08:06:13Z
2022-07-26T06:07:29Z,42.805,6.029,13.3006,4.60045,2470.614,2022-7-26T08:09:16Z
2022-07-26T06:10:32Z,42.805,6.029,13.3002,4.60044,2470.6,2022-7-26T08:12:19Z
2022-07-26T06:13:35Z,42.805,6.029,13.3007,4.60042,2470.614,2022-7-26T08:15:22Z
2022-07-26T06:16:38Z,42.805,6.029,13.3007,4.60044,2470.6,2022-7-26T08:18:25Z
2022-07-26T06:19:41Z,42.805,6.029,13.3006,4.60048,2470.637,2022-7-26T08:21:29Z
2022-07-26T06:22:44Z,42.805,6.029,13.3006,4.60044,2470.614,2022-7-26T08:24:32Z
2022-07-26T06:25:47Z,42.805,6.029,13.3004,4.60046,2470.6,2022-7-26T08:27:35Z
2022-07-26T06:28:51Z,42.805,6.029,13.3006,4.60047,2470.6,2022-7-26T08:30:38Z
2022-07-26T06:31:54Z,42.805,6.029,13.3006,4.60043,2470.624,2022-7-26T08:33:41Z
2022-07-26T06:34:57Z,42.805,6.029,13.3006,4.60042,2470.624,2022-7-26T08:36:44Z
2022-07-26T06:38:00Z,42.805,6.029,13.3006,4.60041,2470.637,2022-7-26T08:39:47Z
2022-07-26T06:41:03Z,42.805,6.029,13.3004,4.60041,2470.637,2022-7-26T08:42:50Z
2022-07-26T06:44:06Z,42.805,6.029,13.3004,4.60045,2470.577,2022-7-26T08:45:54Z
2022-07-26T06:47:09Z,42.805,6.029,13.3006,4.60043,2470.646,2022-7-26T08:48:57Z
2022-07-26T06:50:12Z,42.805,6.029,13.3006,4.60043,2470.61,2022-7-26T08:52:00Z
2022-07-26T06:53:16Z,42.805,6.029,13.3006,4.60046,2470.661,2022-7-26T08:55:03Z
2022-07-26T06:56:19Z,42.805,6.029,13.3006,4.60044,2470.614,2022-7-26T08:58:06Z
2022-07-26T06:59:22Z,42.805,6.029,13.3008,4.60041,2470.614,2022-7-26T09:01:09Z
2022-07-26T07:02:25Z,42.805,6.029,13.3006,4.60044,2470.624,2022-7-26T09:04:12Z
2022-07-26T07:05:28Z,42.805,6.029,13.3006,4.60044,2470.624,2022-7-26T09:07:15Z
2022-07-26T07:08:31Z,42.805,6.029,13.3007,4.60044,2470.646,2022-7-26T09:10:18Z
2022-07-26T07:11:34Z,42.805,6.029,13.3004,4.60046,2470.637,2022-7-26T09:13:22Z
2022-07-26T07:14:37Z,42.805,6.029,13.3007,4.60043,2470.624,2022-7-26T09:16:25Z
2022-07-26T07:17:40Z,42.805,6.029,13.3003,4.60044,2470.637,2022-7-26T09:19:28Z
2022-07-26T07:20:44Z,42.805,6.029,13.3006,4.60040,2470.637,2022-7-26T09:22:31Z
2022-07-26T07:23:47Z,42.805,6.029,13.3004,4.60042,2470.61,2022-7-26T09:25:34Z
2022-07-26T07:26:50Z,42.805,6.029,13.3004,4.60043,2470.6,2022-7-26T09:28:37Z
2022-07-26T07:29:53Z,42.805,6.029,13.3002,4.60042,2470.614,2022-7-26T09:31:40Z
2022-07-26T07:32:56Z,42.805,6.029,13.3007,4.60042,2470.624,2022-7-26T09:34:43Z
2022-07-26T07:35:59Z,42.805,6.029,13.3004,4.60042,2470.591,2022-7-26T09:37:47Z
2022-07-26T07:39:02Z,42.805,6.029,13.3007,4.60042,2470.637,2022-7-26T09:40:50Z
2022-07-26T07:42:05Z,42.805,6.029,13.3011,4.60044,2470.586,2022-7-26T09:43:53Z
2022-07-26T07:45:09Z,42.805,6.029,13.3009,4.60052,2470.6,2022-7-26T09:46:56Z
2022-07-26T07:48:12Z,42.805,6.029,13.3009,4.60044,2470.577,2022-7-26T09:49:59Z
2022-07-26T07:51:15Z,42.805,6.029,13.3004,4.60044,2470.6,2022-7-26T09:53:02Z
2022-07-26T07:54:18Z,42.805,6.029,13.3005,4.60044,2470.624,2022-7-26T09:56:05Z
2022-07-26T07:57:21Z,42.805,6.029,13.3007,4.60045,2470.6,2022-7-26T09:59:08Z
2022-07-26T08:00:24Z,42.805,6.029,13.3009,4.60049,2470.637,2022-7-26T10:02:12Z
2022-07-26T08:03:27Z,42.805,6.029,13.3004,4.60042,2470.614,2022-7-26T10:05:15Z
2022-07-26T08:06:30Z,42.805,6.029,13.3005,4.60042,2470.591,2022-7-26T10:08:18Z
2022-07-26T08:09:34Z,42.805,6.029,13.3007,4.60048,2470.614,2022-7-26T10:11:21Z
2022-07-26T08:12:37Z,42.805,6.029,13.3006,4.60047,2470.577,2022-7-26T10:14:24Z
2022-07-26T08:15:40Z,42.805,6.029,13.3008,4.60043,2470.577,2022-7-26T10:17:27Z
2022-07-26T08:18:43Z,42.805,6.029,13.3007,4.60043,2470.544,2022-7-26T10:20:30Z
2022-07-26T08:21:46Z,42.805,6.029,13.3009,4.60045,2470.6,2022-7-26T10:23:33Z
2022-07-26T08:24:49Z,42.805,6.029,13.3007,4.60046,2470.577,2022-7-26T10:26:37Z
2022-07-26T08:27:52Z,42.805,6.029,13.3005,4.60046,2470.577,2022-7-26T10:29:40Z
2022-07-26T08:30:55Z,42.805,6.029,13.3008,4.60044,2470.553,2022-7-26T10:32:43Z
2022-07-26T08:33:59Z,42.805,6.029,13.3007,4.60042,2470.6,2022-7-26T10:35:46Z
2022-07-26T08:37:02Z,42.805,6.029,13.3004,4.60044,2470.567,2022-7-26T10:38:49Z
2022-07-26T08:40:05Z,42.805,6.029,13.3008,4.60046,2470.567,2022-7-26T10:41:52Z
2022-07-26T08:43:08Z,42.805,6.029,13.3007,4.60049,2470.553,2022-7-26T10:44:55Z
2022-07-26T08:46:11Z,42.805,6.029,13.3007,4.60056,2470.553,2022-7-26T10:47:58Z
2022-07-26T08:49:14Z,42.805,6.029,13.3006,4.60046,2470.577,2022-7-26T10:51:02Z
2022-07-26T08:52:17Z,42.805,6.029,13.3004,4.60046,2470.614,2022-7-26T10:54:05Z
2022-07-26T08:55:20Z,42.805,6.029,13.3008,4.60052,2470.567,2022-7-26T10:57:08Z
2022-07-26T08:58:24Z,42.805,6.029,13.3006,4.60049,2470.577,2022-7-26T11:00:11Z
2022-07-26T09:01:27Z,42.805,6.029,13.3006,4.60048,2470.553,2022-7-26T11:03:14Z
2022-07-26T09:04:30Z,42.805,6.029,13.3006,4.60046,2470.553,2022-7-26T11:06:17Z
2022-07-26T09:07:33Z,42.805,6.029,13.3004,4.60051,2470.591,2022-7-26T11:09:20Z
2022-07-26T09:10:36Z,42.805,6.029,13.3009,4.60054,2470.567,2022-7-26T11:12:23Z
2022-07-26T09:13:39Z,42.805,6.029,13.3005,4.60056,2470.577,2022-7-26T11:15:27Z
2022-07-26T09:16:42Z,42.805,6.029,13.3011,4.60049,2470.53,2022-7-26T11:18:30Z
2022-07-26T09:19:46Z,42.805,6.029,13.3009,4.60055,2470.553,2022-7-26T11:21:33Z
2022-07-26T09:22:49Z,42.805,6.029,13.3009,4.60047,2470.553,2022-7-26T11:24:36Z
2022-07-26T09:25:52Z,42.805,6.029,13.3008,4.60054,2470.567,2022-7-26T11:27:39Z
2022-07-26T09:28:55Z,42.805,6.029,13.3007,4.60042,2470.567,2022-7-26T11:30:42Z
2022-07-26T09:31:58Z,42.805,6.029,13.3005,4.60046,2470.53,2022-7-26T11:33:45Z
2022-07-26T09:35:01Z,42.805,6.029,13.3005,4.60061,2470.553,2022-7-26T11:36:48Z
2022-07-26T09:38:04Z,42.805,6.029,13.3007,4.60054,2470.591,2022-7-26T11:39:52Z
2022-07-26T09:41:07Z,42.805,6.029,13.3006,4.60047,2470.567,2022-7-26T11:42:55Z
2022-07-26T09:44:11Z,42.805,6.029,13.3007,4.60053,2470.53,2022-7-26T11:45:58Z
2022-07-26T09:47:14Z,42.805,6.029,13.3006,4.60046,2470.507,2022-7-26T11:49:01Z
2022-07-26T09:50:17Z,42.805,6.029,13.3006,4.60052,2470.544,2022-7-26T11:52:04Z
2022-07-26T09:53:20Z,42.805,6.029,13.3007,4.60054,2470.553,2022-7-26T11:55:07Z
2022-07-26T09:56:23Z,42.805,6.029,13.3008,4.60056,2470.53,2022-7-26T11:58:10Z
2022-07-26T09:59:26Z,42.805,6.029,13.3001,4.60053,2470.567,2022-7-26T12:01:14Z
2022-07-26T10:02:29Z,42.805,6.029,13.3003,4.60044,2470.53,2022-7-26T12:04:17Z
2022-07-26T10:05:32Z,42.805,6.029,13.3005,4.60050,2470.544,2022-7-26T12:07:20Z
2022-07-26T10:08:36Z,42.805,6.029,13.3012,4.60052,2470.567,2022-7-26T12:10:23Z
2022-07-26T10:11:39Z,42.805,6.029,13.3002,4.60047,2470.553,2022-7-26T12:13:26Z
2022-07-26T10:14:42Z,42.805,6.029,13.3007,4.60047,2470.507,2022-7-26T12:16:29Z
2022-07-26T10:17:45Z,42.805,6.029,13.3009,4.60052,2470.507,2022-7-26T12:19:32Z
2022-07-26T10:20:48Z,42.805,6.029,13.3009,4.60050,2470.53,2022-7-26T12:22:35Z
2022-07-26T10:23:51Z,42.805,6.029,13.3009,4.60049,2470.53,2022-7-26T12:25:39Z
2022-07-26T10:26:54Z,42.805,6.029,13.3004,4.60053,2470.52,2022-7-26T12:28:42Z
2022-07-26T10:29:57Z,42.805,6.029,13.3004,4.60053,2470.53,2022-7-26T12:31:45Z
2022-07-26T10:33:01Z,42.805,6.029,13.3004,4.60057,2470.507,2022-7-26T12:34:48Z
2022-07-26T10:36:04Z,42.805,6.029,13.3007,4.60052,2470.53,2022-7-26T12:37:51Z
2022-07-26T10:39:07Z,42.805,6.029,13.3006,4.60049,2470.507,2022-7-26T12:40:54Z
2022-07-26T10:42:10Z,42.805,6.029,13.3006,4.60050,2470.544,2022-7-26T12:43:57Z
2022-07-26T10:45:13Z,42.805,6.029,13.3006,4.60052,2470.507,2022-7-26T12:47:00Z
2022-07-26T10:48:16Z,42.805,6.029,13.3005,4.60045,2470.507,2022-7-26T12:50:04Z
2022-07-26T10:51:19Z,42.805,6.029,13.3003,4.60048,2470.507,2022-7-26T12:53:07Z
2022-07-26T10:54:22Z,42.805,6.029,13.3009,4.60049,2470.544,2022-7-26T12:56:10Z
2022-07-26T10:57:26Z,42.805,6.029,13.3006,4.60051,2470.507,2022-7-26T12:59:13Z
2022-07-26T11:00:29Z,42.805,6.029,13.3007,4.60052,2470.507,2022-7-26T13:02:16Z
2022-07-26T11:03:32Z,42.805,6.029,13.3005,4.60053,2470.53,2022-7-26T13:05:19Z
2022-07-26T11:06:35Z,42.805,6.029,13.3006,4.60054,2470.507,2022-7-26T13:08:22Z
2022-07-26T11:09:38Z,42.805,6.029,13.3009,4.60052,2470.52,2022-7-26T13:11:25Z
2022-07-26T11:12:41Z,42.805,6.029,13.3003,4.60050,2470.483,2022-7-26T13:14:29Z
2022-07-26T11:15:44Z,42.805,6.029,13.3004,4.60043,2470.483,2022-7-26T13:17:32Z
2022-07-26T11:18:47Z,42.805,6.029,13.3004,4.60057,2470.507,2022-7-26T13:20:35Z
2022-07-26T11:21:51Z,42.805,6.029,13.3006,4.60052,2470.52,2022-7-26T13:23:38Z
2022-07-26T11:24:54Z,42.805,6.029,13.3004,4.60052,2470.483,2022-7-26T13:26:41Z
2022-07-26T11:27:57Z,42.805,6.029,13.3006,4.60045,2470.52,2022-7-26T13:29:44Z
2022-07-26T11:31:00Z,42.805,6.029,13.3000,4.60052,2470.507,2022-7-26T13:32:47Z
2022-07-26T11:34:03Z,42.805,6.029,13.3004,4.60047,2470.507,2022-7-26T13:35:50Z
2022-07-26T11:37:06Z,42.805,6.029,13.3006,4.60058,2470.507,2022-7-26T13:38:54Z
2022-07-26T11:40:09Z,42.805,6.029,13.3006,4.60059,2470.507,2022-7-26T13:41:57Z
2022-07-26T11:43:12Z,42.805,6.029,13.3008,4.60059,2470.544,2022-7-26T13:45:00Z
2022-07-26T11:46:16Z,42.805,6.029,13.3004,4.60058,2470.507,2022-7-26T13:48:03Z
2022-07-26T11:49:19Z,42.805,6.029,13.3005,4.60052,2470.52,2022-7-26T13:51:06Z
2022-07-26T11:52:22Z,42.805,6.029,13.3005,4.60055,2470.483,2022-7-26T13:54:09Z
2022-07-26T11:55:25Z,42.805,6.029,13.3004,4.60049,2470.483,2022-7-26T13:57:12Z
2022-07-26T11:58:28Z,42.805,6.029,13.3010,4.60056,2470.483,2022-7-26T14:00:15Z
2022-07-26T12:01:31Z,42.805,6.029,13.3004,4.60053,2470.507,2022-7-26T14:03:19Z
2022-07-26T12:04:34Z,42.805,6.029,13.3006,4.60055,2470.53,2022-7-26T14:06:22Z
2022-07-26T12:07:37Z,42.805,6.029,13.3003,4.60051,2470.483,2022-7-26T14:09:25Z
2022-07-26T12:10:41Z,42.805,6.029,13.3002,4.60049,2470.507,2022-7-26T14:12:28Z
2022-07-26T12:13:44Z,42.805,6.029,13.3006,4.60054,2470.52,2022-7-26T14:15:31Z
2022-07-26T12:16:47Z,42.805,6.029,13.3008,4.60055,2470.52,2022-7-26T14:18:34Z
2022-07-26T12:19:50Z,42.805,6.029,13.3008,4.60050,2470.507,2022-7-26T14:21:37Z
2022-07-26T12:22:53Z,42.805,6.029,13.3004,4.60047,2470.52,2022-7-26T14:24:40Z
2022-07-26T12:25:56Z,42.805,6.029,13.3000,4.60051,2470.497,2022-7-26T14:27:44Z
2022-07-26T12:28:59Z,42.805,6.029,13.3006,4.60047,2470.52,2022-7-26T14:30:47Z
2022-07-26T12:32:02Z,42.805,6.029,13.3004,4.60059,2470.516,2022-7-26T14:33:50Z
2022-07-26T12:35:06Z,42.805,6.029,13.3008,4.60049,2470.507,2022-7-26T14:36:53Z
2022-07-26T12:38:09Z,42.805,6.029,13.3005,4.60049,2470.53,2022-7-26T14:39:56Z
2022-07-26T12:41:12Z,42.805,6.029,13.3008,4.60053,2470.507,2022-7-26T14:42:59Z
2022-07-26T12:44:15Z,42.805,6.029,13.3001,4.60047,2470.507,2022-7-26T14:46:02Z
2022-07-26T12:47:18Z,42.805,6.029,13.3009,4.60050,2470.52,2022-7-26T14:49:05Z
2022-07-26T12:50:21Z,42.805,6.029,13.3005,4.60062,2470.507,2022-7-26T14:52:09Z
2022-07-26T12:53:24Z,42.805,6.029,13.3002,4.60049,2470.507,2022-7-26T14:55:12Z
2022-07-26T12:56:27Z,42.805,6.029,13.3006,4.60049,2470.52,2022-7-26T14:58:15Z
2022-07-26T12:59:31Z,42.805,6.029,13.3007,4.60049,2470.53,2022-7-26T15:01:18Z
2022-07-26T13:02:34Z,42.805,6.029,13.3006,4.60053,2470.507,2022-7-26T15:04:21Z
2022-07-26T13:05:37Z,42.805,6.029,13.3005,4.60054,2470.52,2022-7-26T15:07:24Z
2022-07-26T13:08:40Z,42.805,6.029,13.3006,4.60053,2470.53,2022-7-26T15:10:27Z
2022-07-26T13:11:43Z,42.805,6.029,13.3006,4.60049,2470.507,2022-7-26T15:13:30Z
2022-07-26T13:14:46Z,42.805,6.029,13.3006,4.60049,2470.553,2022-7-26T15:16:34Z
2022-07-26T13:17:49Z,42.805,6.029,13.3004,4.60047,2470.507,2022-7-26T15:19:37Z
2022-07-26T13:20:52Z,42.805,6.029,13.3006,4.60049,2470.483,2022-7-26T15:22:40Z
2022-07-26T13:23:56Z,42.805,6.029,13.3006,4.60049,2470.507,2022-7-26T15:25:43Z
2022-07-26T13:26:59Z,42.805,6.029,13.3006,4.60049,2470.52,2022-7-26T15:28:46Z
2022-07-26T13:30:02Z,42.805,6.029,13.3003,4.60052,2470.507,2022-7-26T15:31:49Z
2022-07-26T13:33:05Z,42.805,6.029,13.3005,4.60051,2470.507,2022-7-26T15:34:52Z
2022-07-26T13:36:08Z,42.805,6.029,13.3005,4.60051,2470.544,2022-7-26T15:37:56Z
2022-07-26T13:39:11Z,42.805,6.029,13.3009,4.60050,2470.53,2022-7-26T15:40:59Z
2022-07-26T13:42:14Z,42.805,6.029,13.3005,4.60054,2470.544,2022-7-26T15:44:02Z
2022-07-26T13:45:18Z,42.805,6.029,13.3009,4.60050,2470.567,2022-7-26T15:47:05Z
2022-07-26T13:48:21Z,42.805,6.029,13.3009,4.60049,2470.507,2022-7-26T15:50:08Z
2022-07-26T13:51:24Z,42.805,6.029,13.3006,4.60053,2470.52,2022-7-26T15:53:11Z
2022-07-26T13:54:27Z,42.805,6.029,13.3005,4.60050,2470.544,2022-7-26T15:56:14Z
2022-07-26T13:57:30Z,42.805,6.029,13.3007,4.60049,2470.553,2022-7-26T15:59:17Z
2022-07-26T14:00:33Z,42.805,6.029,13.3010,4.60050,2470.553,2022-7-26T16:02:21Z
2022-07-26T14:03:36Z,42.805,6.029,13.3004,4.60054,2470.53,2022-7-26T16:05:24Z
2022-07-26T14:06:39Z,42.805,6.029,13.3006,4.60047,2470.507,2022-7-26T16:08:27Z
2022-07-26T14:09:43Z,42.805,6.029,13.3007,4.60050,2470.507,2022-7-26T16:11:30Z
2022-07-26T14:12:46Z,42.805,6.029,13.3010,4.60046,2470.591,2022-7-26T16:14:33Z
2022-07-26T14:15:49Z,42.805,6.029,13.3006,4.60047,2470.553,2022-7-26T16:17:36Z
2022-07-26T14:18:52Z,42.805,6.029,13.3009,4.60047,2470.577,2022-7-26T16:20:39Z
2022-07-26T14:21:55Z,42.805,6.029,13.3009,4.60047,2470.577,2022-7-26T16:23:42Z
2022-07-26T14:24:58Z,42.805,6.029,13.3009,4.60047,2470.577,2022-7-26T16:26:46Z
2022-07-26T14:28:01Z,42.805,6.029,13.3005,4.60052,2470.53,2022-7-26T16:29:49Z
2022-07-26T14:31:04Z,42.805,6.029,13.3004,4.60048,2470.577,2022-7-26T16:32:52Z
2022-07-26T14:34:08Z,42.805,6.029,13.3004,4.60049,2470.567,2022-7-26T16:35:55Z
2022-07-26T14:37:11Z,42.805,6.029,13.3005,4.60045,2470.567,2022-7-26T16:38:58Z
2022-07-26T14:40:14Z,42.805,6.029,13.3004,4.60049,2470.553,2022-7-26T16:42:01Z
2022-07-26T14:43:17Z,42.805,6.029,13.3009,4.60049,2470.577,2022-7-26T16:45:04Z
2022-07-26T14:46:20Z,42.805,6.029,13.3007,4.60047,2470.553,2022-7-26T16:48:07Z
2022-07-26T14:49:23Z,42.805,6.029,13.3007,4.60046,2470.591,2022-7-26T16:51:11Z
2022-07-26T14:52:26Z,42.805,6.029,13.3004,4.60052,2470.577,2022-7-26T16:54:14Z
2022-07-26T14:55:29Z,42.805,6.029,13.3006,4.60054,2470.553,2022-7-26T16:57:17Z
2022-07-26T14:58:33Z,42.805,6.029,13.3005,4.60051,2470.567,2022-7-26T17:00:20Z
2022-07-26T15:01:36Z,42.805,6.029,13.3005,4.60049,2470.567,2022-7-26T17:03:23Z
2022-07-26T15:04:39Z,42.805,6.029,13.3006,4.60049,2470.577,2022-7-26T17:06:26Z
2022-07-26T15:07:42Z,42.805,6.029,13.3009,4.60049,2470.6,2022-7-26T17:09:29Z
2022-07-26T15:10:45Z,42.805,6.029,13.3006,4.60052,2470.614,2022-7-26T17:12:32Z
2022-07-26T15:13:48Z,42.805,6.029,13.3003,4.60054,2470.624,2022-7-26T17:15:36Z